HST,Max TemperatureF,Mean TemperatureF,Min TemperatureF,Max Dew PointF,MeanDew PointF,Min DewpointF,Max Humidity, Mean Humidity, Min Humidity, Max Sea Level PressureIn, Mean Sea Level PressureIn, Min Sea Level PressureIn, Max VisibilityMiles, Mean VisibilityMiles, Min VisibilityMiles, Max Wind SpeedMPH, Mean Wind SpeedMPH, Max Gust SpeedMPH,PrecipitationIn, CloudCover, Events, WindDirDegrees
2012-10-1,80,72,64,66,65,62,90,73,58,30.02,29.97,29.93,10,10,10,9,3,17,0.00,2,,324
2012-10-2,82,76,69,67,66,64,84,72,54,30.02,29.97,29.93,10,10,10,6,3,,0.00,4,,360
2012-10-3,84,74,64,66,64,61,90,70,53,30.06,30.01,29.97,10,10,10,10,5,24,0.00,2,,27
2012-10-4,82,74,66,67,64,60,84,68,49,30.06,30.02,29.98,10,10,10,14,4,20,0.00,1,,141
2012-10-5,82,74,66,66,64,61,90,70,49,30.03,29.97,29.92,10,10,10,12,4,16,0.00,2,,117
2012-10-6,82,74,66,68,66,62,87,73,53,29.97,29.93,29.87,10,10,10,13,5,16,0.00,2,,145
2012-10-7,84,78,73,72,70,67,93,79,58,29.95,29.91,29.87,10,9,5,14,7,,0.01,5,Rain,161
2012-10-8,82,78,73,70,69,66,85,75,58,30.01,29.95,29.91,10,10,9,16,10,20,0.00,3,,151
2012-10-9,87,78,68,70,69,65,90,77,49,30.10,30.05,29.99,10,10,7,12,5,,0.00,2,,60
2012-10-10,86,77,68,72,69,65,93,77,53,30.11,30.07,30.01,10,9,4,16,5,24,0.00,2,Rain,17
2012-10-11,87,80,72,69,67,63,87,68,51,30.12,30.07,29.99,10,10,10,20,9,31,0.00,0,,37
2012-10-12,86,44,1,70,66,63,76,63,51,30.15,30.10,30.03,10,10,10,17,13,29,0.00,1,,39
2012-10-13,84,82,77,67,65,63,69,57,49,30.17,30.13,30.08,10,10,10,20,13,32,0.00,2,,39
2012-10-14,84,78,73,69,67,66,83,70,56,30.15,30.11,30.06,10,9,4,20,12,31,0.07,4,Rain,41
2012-10-15,82,78,73,68,66,65,80,68,57,30.12,30.06,29.99,10,10,8,21,12,31,0.00,2,Rain,43
2012-10-16,82,78,73,68,66,65,80,68,55,30.03,29.99,29.95,10,10,10,14,7,21,0.00,2,Rain,38
2012-10-17,82,78,77,67,65,63,71,60,55,30.01,29.96,29.92,10,10,10,17,5,25,0.00,2,,24
2012-10-18,84,75,66,65,63,61,83,63,52,30.04,29.99,29.92,10,10,10,16,6,28,0.00,2,,28
2012-10-19,84,78,73,65,62,60,75,57,44,30.05,30.00,29.95,10,10,10,22,10,30,0.00,1,Rain,44
2012-10-20,84,42,1,67,66,64,75,62,54,30.01,29.97,29.92,10,10,10,18,12,29,0.00,1,,44
2012-10-21,84,76,69,65,61,55,68,55,47,30.00,29.97,29.92,10,10,10,23,10,30,0.00,0,,50
2012-10-22,84,42,1,66,62,59,65,53,45,30.04,29.97,29.90,10,10,10,16,9,28,0.00,1,,42
2012-10-23,86,77,68,67,64,60,78,59,44,29.99,29.95,29.89,10,10,10,15,4,30,0.00,3,,115
2012-10-24,86,80,73,72,69,65,87,75,51,29.95,29.90,29.86,10,10,2,9,3,,0.11,5,Rain,108
2012-10-25,84,78,73,72,69,65,91,78,54,30.03,29.96,29.91,10,10,10,12,2,,0.02,4,Rain,48
2012-10-26,84,77,70,72,68,65,94,77,51,30.10,30.04,29.98,10,10,8,10,3,,0.00,3,Rain,3
2012-10-27,84,76,68,70,66,63,87,71,52,30.10,30.06,29.99,10,10,10,15,7,23,0.00,2,,29
2012-10-28,82,76,71,71,66,64,91,73,56,30.06,30.03,29.98,10,10,6,17,11,28,0.01,4,Rain,39
2012-10-29,82,78,73,67,64,59,81,66,54,30.09,30.04,29.98,10,10,10,21,12,32,0.00,2,,40
2012-10-30,82,77,72,68,66,62,84,71,58,30.12,30.07,30.00,10,10,6,16,10,28,0.02,3,Rain,40
2012-10-31,84,75,66,66,62,56,79,64,43,30.10,30.05,30.00,10,10,10,17,8,25,0.00,1,,33